Wind From: 11-12-2017 04:25 Until: 16:00 warning for: Wind Level: Orange info button

Power and phone distribution networks may be disrupted for relatively long periods., Roofs and chimneys can be damaged. , Tree branches may break. , Vehicles can be deported. , Traffic may be disrupted, particularly on secondary roads in forest areas. Limit your trips. , Limit your speed in highway driving, especially if you drive a vehicle or hitch sensitive to wind. , Do not go for walks in forests or along the coast., In town, be vigilant against possible falling objects., Do not work on roofs and do not touch any electrical line fallen on the ground., Store or secure sensitive objects to wind or likely to be damaged., Always install power generators outside buildings. 


Meteo18 Weather Cam more information Meteo18 Weather Cam


Thunder radar more information blitzortung!


Rain radar more information rain snow radar


Visit our other weather sites:

Template documentation
and downloads

And another site



Weather Underground History page Text

Daily Summary for February 6, 2017 Units:  Metric    English   Both
« Previous Day
Next Day »
Daily Weekly Monthly Yearly Custom
  High: Low: Average:
Temperature: 8.0 °C 3.8 °C 5.2 °C
Dew Point: 4.6 °C 2.5 °C 3.3 °C
Humidity: 93 % 76 % 87 %
Wind Speed: 25.7 km/h 0.0 km/h 5.8 km/h
Wind Gust: 35.4 km/h - -
Wind:- - WNW
Pressure: 1021.2 hPa 1009.7 hPa -
Precipitation: 0.0 mm    
Historical Graphs
 
 
Tabular Data for February 6, 2017
Time Temperature Dew Point Pressure Wind Wind Speed Wind Gust Humidity Rainfall Rate (Hourly)
00:02 5.8 °C 4.3 °C 1009.7 hPa WNW 14.5 km/h 29.0 km/h 90 % 0.0 mm
00:07 5.8 °C 4.3 °C 1009.7 hPa NW 9.7 km/h 27.4 km/h 90 % 0.0 mm
00:12 5.8 °C 4.3 °C 1010.0 hPa NW 12.9 km/h 35.4 km/h 90 % 0.0 mm
00:17 5.8 °C 4.4 °C 1010.0 hPa WNW 20.9 km/h 35.4 km/h 91 % 0.0 mm
00:22 5.8 °C 4.3 °C 1010.4 hPa West 6.4 km/h 30.6 km/h 90 % 0.0 mm
00:32 5.8 °C 4.3 °C 1010.4 hPa WNW 17.7 km/h 27.4 km/h 90 % 0.0 mm
00:42 5.8 °C 4.4 °C 1010.7 hPa NW 4.8 km/h 24.1 km/h 91 % 0.0 mm
00:47 5.8 °C 4.4 °C 1010.7 hPa WNW 4.8 km/h 19.3 km/h 91 % 0.0 mm
00:52 5.8 °C 4.4 °C 1011.1 hPa WNW 4.8 km/h 19.3 km/h 91 % 0.0 mm
00:57 5.8 °C 4.4 °C 1011.1 hPa NW 12.9 km/h 19.3 km/h 91 % 0.0 mm
01:02 5.8 °C 4.3 °C 1011.1 hPa WNW 9.7 km/h 19.3 km/h 90 % 0.0 mm
01:07 5.7 °C 4.2 °C 1011.1 hPa NW 11.3 km/h 24.1 km/h 90 % 0.0 mm
01:12 5.6 °C 3.9 °C 1011.4 hPa NNW 14.5 km/h 25.7 km/h 89 % 0.0 mm
01:17 5.6 °C 3.9 °C 1011.4 hPa NNW 9.7 km/h 27.4 km/h 89 % 0.0 mm
01:22 5.5 °C 3.8 °C 1011.4 hPa WNW 9.7 km/h 27.4 km/h 89 % 0.0 mm
01:27 5.4 °C 3.9 °C 1011.7 hPa NW 4.8 km/h 27.4 km/h 90 % 0.0 mm
01:32 5.4 °C 3.9 °C 1011.7 hPa WNW 4.8 km/h 20.9 km/h 90 % 0.0 mm
01:37 5.2 °C 3.9 °C 1011.7 hPa WNW 9.7 km/h 20.9 km/h 91 % 0.0 mm
01:42 5.1 °C 3.8 °C 1011.7 hPa WNW 8.0 km/h 20.9 km/h 91 % 0.0 mm
01:47 5.0 °C 3.8 °C 1012.1 hPa WNW 8.0 km/h 20.9 km/h 92 % 0.0 mm
01:52 4.9 °C 3.7 °C 1012.1 hPa WNW 1.6 km/h 17.7 km/h 92 % 0.0 mm
01:57 4.8 °C 3.6 °C 1012.4 hPa NNW 6.4 km/h 19.3 km/h 92 % 0.0 mm
02:02 4.8 °C 3.8 °C 1012.4 hPa WNW 4.8 km/h 19.3 km/h 93 % 0.0 mm
02:07 4.7 °C 3.7 °C 1012.4 hPa NW 6.4 km/h 16.1 km/h 93 % 0.0 mm
02:12 4.6 °C 3.6 °C 1012.4 hPa North 16.1 km/h 17.7 km/h 93 % 0.0 mm
02:17 4.4 °C 3.2 °C 1012.4 hPa WNW 3.2 km/h 17.7 km/h 92 % 0.0 mm
02:22 4.4 °C 3.2 °C 1012.8 hPa WNW 3.2 km/h 17.7 km/h 92 % 0.0 mm
02:27 4.4 °C 3.4 °C 1012.8 hPa WNW 8.0 km/h 17.7 km/h 93 % 0.0 mm
02:32 4.3 °C 3.3 °C 1012.8 hPa NW 1.6 km/h 17.7 km/h 93 % 0.0 mm
02:37 4.3 °C 3.3 °C 1013.1 hPa WNW 11.3 km/h 17.7 km/h 93 % 0.0 mm
02:42 4.3 °C 3.3 °C 1013.1 hPa West 20.9 km/h 20.9 km/h 93 % 0.0 mm
02:47 4.2 °C 3.2 °C 1013.4 hPa WNW 11.3 km/h 22.5 km/h 93 % 0.0 mm
02:52 4.2 °C 3.2 °C 1013.4 hPa WNW 8.0 km/h 22.5 km/h 93 % 0.0 mm
02:57 4.2 °C 3.2 °C 1013.4 hPa WNW 6.4 km/h 24.1 km/h 93 % 0.0 mm
03:02 4.3 °C 3.1 °C 1013.4 hPa West 9.7 km/h 30.6 km/h 92 % 0.0 mm
03:07 4.3 °C 3.1 °C 1013.4 hPa NW 6.4 km/h 30.6 km/h 92 % 0.0 mm
03:12 4.3 °C 3.1 °C 1013.4 hPa WNW 17.7 km/h 30.6 km/h 92 % 0.0 mm
03:17 4.3 °C 3.1 °C 1013.8 hPa WNW 25.7 km/h 30.6 km/h 92 % 0.0 mm
03:22 4.2 °C 3.0 °C 1013.8 hPa West 14.5 km/h 30.6 km/h 92 % 0.0 mm
03:32 4.2 °C 3.2 °C 1014.1 hPa WNW 6.4 km/h 29.0 km/h 93 % 0.0 mm
03:37 4.1 °C 3.1 °C 1014.1 hPa NW 24.1 km/h 30.6 km/h 93 % 0.0 mm
03:42 4.1 °C 2.9 °C 1014.1 hPa West 14.5 km/h 30.6 km/h 92 % 0.0 mm
03:47 4.1 °C 3.1 °C 1014.1 hPa WNW 19.3 km/h 30.6 km/h 93 % 0.0 mm
03:52 4.1 °C 3.1 °C 1014.4 hPa NW 4.8 km/h 30.6 km/h 93 % 0.0 mm
03:57 4.1 °C 3.1 °C 1014.4 hPa NW 11.3 km/h 29.0 km/h 93 % 0.0 mm
04:02 4.2 °C 3.0 °C 1014.8 hPa WNW 12.9 km/h 29.0 km/h 92 % 0.0 mm
04:07 4.2 °C 3.0 °C 1014.8 hPa WNW 16.1 km/h 25.7 km/h 92 % 0.0 mm
04:12 4.2 °C 3.0 °C 1014.8 hPa NW 6.4 km/h 32.2 km/h 92 % 0.0 mm
04:17 4.3 °C 3.0 °C 1014.8 hPa WNW 16.1 km/h 32.2 km/h 91 % 0.0 mm
04:22 4.3 °C 3.0 °C 1014.8 hPa WNW 14.5 km/h 35.4 km/h 91 % 0.0 mm
04:32 4.3 °C 3.0 °C 1015.1 hPa NW 16.1 km/h 32.2 km/h 91 % 0.0 mm
04:37 4.3 °C 2.8 °C 1015.1 hPa NNW 9.7 km/h 32.2 km/h 90 % 0.0 mm
04:42 4.3 °C 2.8 °C 1015.5 hPa NW 9.7 km/h 32.2 km/h 90 % 0.0 mm
04:47 4.4 °C 2.7 °C 1015.5 hPa NW 9.7 km/h 32.2 km/h 89 % 0.0 mm
04:52 4.4 °C 2.7 °C 1015.5 hPa NNW 6.4 km/h 32.2 km/h 89 % 0.0 mm
04:57 4.4 °C 2.7 °C 1015.8 hPa NW 11.3 km/h 33.8 km/h 89 % 0.0 mm
05:02 4.4 °C 2.7 °C 1015.8 hPa East 12.9 km/h 35.4 km/h 89 % 0.0 mm
05:07 4.5 °C 2.8 °C 1016.1 hPa NNW 22.5 km/h 35.4 km/h 89 % 0.0 mm
05:12 4.5 °C 2.8 °C 1016.1 hPa NW 6.4 km/h 35.4 km/h 89 % 0.0 mm
05:17 4.5 °C 2.8 °C 1016.1 hPa NNW 19.3 km/h 33.8 km/h 89 % 0.0 mm
05:22 4.5 °C 2.8 °C 1016.1 hPa NW 14.5 km/h 27.4 km/h 89 % 0.0 mm
05:27 4.6 °C 2.8 °C 1016.5 hPa NW 11.3 km/h 29.0 km/h 88 % 0.0 mm
05:32 4.6 °C 2.8 °C 1016.5 hPa WNW 19.3 km/h 29.0 km/h 88 % 0.0 mm
05:37 4.6 °C 2.9 °C 1016.5 hPa NW 6.4 km/h 25.7 km/h 89 % 0.0 mm
05:42 4.6 °C 3.1 °C 1016.5 hPa North 6.4 km/h 22.5 km/h 90 % 0.0 mm
05:47 4.4 °C 2.9 °C 1016.8 hPa WNW 17.7 km/h 25.7 km/h 90 % 0.0 mm
05:52 4.5 °C 3.0 °C 1016.8 hPa North 20.9 km/h 25.7 km/h 90 % 0.0 mm
05:57 4.4 °C 2.9 °C 1016.8 hPa NW 17.7 km/h 29.0 km/h 90 % 0.0 mm
06:02 4.5 °C 3.0 °C 1016.8 hPa NW 14.5 km/h 29.0 km/h 90 % 0.0 mm
06:12 4.6 °C 3.1 °C 1017.2 hPa NNW 6.4 km/h 27.4 km/h 90 % 0.0 mm
06:17 4.6 °C 3.1 °C 1017.2 hPa NNW 8.0 km/h 27.4 km/h 90 % 0.0 mm
06:22 4.6 °C 3.1 °C 1017.2 hPa NNW 8.0 km/h 27.4 km/h 90 % 0.0 mm
06:27 4.6 °C 3.1 °C 1017.2 hPa NNW 4.8 km/h 24.1 km/h 90 % 0.0 mm
06:32 4.6 °C 3.3 °C 1017.5 hPa NW 8.0 km/h 25.7 km/h 91 % 0.0 mm
06:37 4.6 °C 3.3 °C 1017.5 hPa WNW 16.1 km/h 25.7 km/h 91 % 0.0 mm
06:42 4.7 °C 3.4 °C 1017.5 hPa NW 14.5 km/h 25.7 km/h 91 % 0.0 mm
06:47 4.7 °C 3.4 °C 1017.5 hPa NW 6.4 km/h 25.7 km/h 91 % 0.0 mm
06:52 4.7 °C 3.4 °C 1017.5 hPa NW 3.2 km/h 25.7 km/h 91 % 0.0 mm
06:57 4.7 °C 3.4 °C 1017.8 hPa NW 8.0 km/h 25.7 km/h 91 % 0.0 mm
07:02 4.7 °C 3.4 °C 1017.8 hPa NW 11.3 km/h 19.3 km/h 91 % 0.0 mm
07:07 4.8 °C 3.5 °C 1017.8 hPa North 9.7 km/h 19.3 km/h 91 % 0.0 mm
07:12 4.9 °C 3.4 °C 1017.8 hPa NW 16.1 km/h 20.9 km/h 90 % 0.0 mm
07:17 4.9 °C 3.4 °C 1017.8 hPa WNW 11.3 km/h 20.9 km/h 90 % 0.0 mm
07:22 4.9 °C 3.4 °C 1017.8 hPa NNW 8.0 km/h 17.7 km/h 90 % 0.0 mm
07:27 4.9 °C 3.4 °C 1017.8 hPa NW 3.2 km/h 17.7 km/h 90 % 0.0 mm
07:32 4.9 °C 3.4 °C 1017.8 hPa WNW 6.4 km/h 17.7 km/h 90 % 0.0 mm
07:37 5.0 °C 3.5 °C 1018.2 hPa WSW 4.8 km/h 20.9 km/h 90 % 0.0 mm
07:42 5.0 °C 3.5 °C 1018.2 hPa NW 4.8 km/h 20.9 km/h 90 % 0.0 mm
07:47 5.1 °C 3.6 °C 1018.5 hPa WNW 12.9 km/h 20.9 km/h 90 % 0.0 mm
07:52 5.0 °C 3.5 °C 1018.5 hPa NNW 6.4 km/h 20.9 km/h 90 % 0.0 mm
07:57 5.1 °C 3.6 °C 1018.5 hPa WNW 9.7 km/h 20.9 km/h 90 % 0.0 mm
08:02 5.0 °C 3.5 °C 1018.5 hPa NNW 6.4 km/h 17.7 km/h 90 % 0.0 mm
08:12 5.1 °C 3.4 °C 1018.8 hPa NW 9.7 km/h 24.1 km/h 89 % 0.0 mm
08:17 5.1 °C 3.4 °C 1018.8 hPa WNW 8.0 km/h 24.1 km/h 89 % 0.0 mm
08:22 5.1 °C 3.4 °C 1018.8 hPa WNW 6.4 km/h 24.1 km/h 89 % 0.0 mm
08:27 5.1 °C 3.3 °C 1018.8 hPa NNW 9.7 km/h 20.9 km/h 88 % 0.0 mm
08:32 5.1 °C 3.3 °C 1018.8 hPa WNW 4.8 km/h 20.9 km/h 88 % 0.0 mm
08:37 5.1 °C 3.3 °C 1019.2 hPa NW 3.2 km/h 20.9 km/h 88 % 0.0 mm
08:42 5.1 °C 3.3 °C 1019.2 hPa NW 8.0 km/h 16.1 km/h 88 % 0.0 mm
08:47 5.1 °C 3.3 °C 1019.2 hPa NNW 6.4 km/h 17.7 km/h 88 % 0.0 mm
08:52 5.1 °C 3.3 °C 1018.8 hPa West 8.0 km/h 17.7 km/h 88 % 0.0 mm
08:57 5.1 °C 3.3 °C 1019.2 hPa West 4.8 km/h 16.1 km/h 88 % 0.0 mm
09:02 5.1 °C 3.4 °C 1019.2 hPa NW 4.8 km/h 12.9 km/h 89 % 0.0 mm
09:12 5.1 °C 3.4 °C 1019.5 hPa NW 8.0 km/h 14.5 km/h 89 % 0.0 mm
09:17 5.1 °C 3.4 °C 1019.5 hPa NW 9.7 km/h 16.1 km/h 89 % 0.0 mm
09:22 5.1 °C 3.4 °C 1019.9 hPa WNW 11.3 km/h 16.1 km/h 89 % 0.0 mm
09:32 4.9 °C 3.1 °C 1019.5 hPa WNW 11.3 km/h 25.7 km/h 88 % 0.0 mm
09:37 4.9 °C 3.2 °C 1019.5 hPa WNW 6.4 km/h 25.7 km/h 89 % 0.0 mm
09:42 4.9 °C 3.2 °C 1019.5 hPa WNW 4.8 km/h 25.7 km/h 89 % 0.0 mm
09:52 4.8 °C 3.1 °C 1019.5 hPa WNW 11.3 km/h 17.7 km/h 89 % 0.0 mm
09:57 4.8 °C 3.1 °C 1019.9 hPa NNW 12.9 km/h 19.3 km/h 89 % 0.0 mm
10:02 4.8 °C 3.1 °C 1019.9 hPa West 8.0 km/h 19.3 km/h 89 % 0.0 mm
10:07 4.8 °C 3.1 °C 1019.9 hPa WNW 4.8 km/h 20.9 km/h 89 % 0.0 mm
10:12 4.8 °C 3.1 °C 1019.5 hPa WNW 9.7 km/h 20.9 km/h 89 % 0.0 mm
10:17 4.8 °C 3.1 °C 1019.9 hPa NW 12.9 km/h 17.7 km/h 89 % 0.0 mm
10:22 4.8 °C 3.1 °C 1019.9 hPa WNW 11.3 km/h 17.7 km/h 89 % 0.0 mm
10:27 4.8 °C 3.1 °C 1019.9 hPa NNW 6.4 km/h 17.7 km/h 89 % 0.0 mm
10:32 4.8 °C 3.1 °C 1019.9 hPa NW 4.8 km/h 17.7 km/h 89 % 0.0 mm
10:37 4.7 °C 3.2 °C 1019.9 hPa NW 3.2 km/h 17.7 km/h 90 % 0.0 mm
10:42 4.8 °C 3.3 °C 1019.9 hPa NNW 3.2 km/h 17.7 km/h 90 % 0.0 mm
10:47 4.8 °C 3.1 °C 1019.9 hPa WNW 6.4 km/h 17.7 km/h 89 % 0.0 mm
10:52 4.8 °C 3.1 °C 1019.9 hPa NNW 3.2 km/h 22.5 km/h 89 % 0.0 mm
10:57 4.9 °C 3.4 °C 1020.2 hPa West 11.3 km/h 22.5 km/h 90 % 0.0 mm
11:02 4.9 °C 3.2 °C 1020.2 hPa NW 6.4 km/h 22.5 km/h 89 % 0.0 mm
11:07 4.9 °C 3.2 °C 1020.2 hPa NNW 4.8 km/h 16.1 km/h 89 % 0.0 mm
11:12 5.0 °C 3.3 °C 1020.2 hPa NW 4.8 km/h 20.9 km/h 89 % 0.0 mm
11:17 5.1 °C 3.6 °C 1020.2 hPa NNW 6.4 km/h 20.9 km/h 90 % 0.0 mm
11:22 5.1 °C 3.4 °C 1020.2 hPa WNW 12.9 km/h 20.9 km/h 89 % 0.0 mm
11:27 5.1 °C 3.4 °C 1020.2 hPa NW 9.7 km/h 16.1 km/h 89 % 0.0 mm
11:32 5.2 °C 3.4 °C 1020.2 hPa NNW 3.2 km/h 16.1 km/h 88 % 0.0 mm
11:37 5.3 °C 3.6 °C 1020.2 hPa West 8.0 km/h 14.5 km/h 89 % 0.0 mm
11:42 5.3 °C 3.5 °C 1020.5 hPa WNW 4.8 km/h 14.5 km/h 88 % 0.0 mm
11:47 5.3 °C 3.5 °C 1020.5 hPa NW 4.8 km/h 14.5 km/h 88 % 0.0 mm
11:52 5.4 °C 3.6 °C 1020.5 hPa NW 4.8 km/h 14.5 km/h 88 % 0.0 mm
11:57 5.4 °C 3.6 °C 1020.5 hPa NW 9.7 km/h 14.5 km/h 88 % 0.0 mm
12:02 5.6 °C 3.8 °C 1020.5 hPa NNW 14.5 km/h 16.1 km/h 88 % 0.0 mm
12:07 5.7 °C 3.9 °C 1020.5 hPa WSW 6.4 km/h 16.1 km/h 88 % 0.0 mm
12:12 5.7 °C 3.7 °C 1020.5 hPa NW 8.0 km/h 16.1 km/h 87 % 0.0 mm
12:17 5.7 °C 3.7 °C 1020.5 hPa NW 9.7 km/h 19.3 km/h 87 % 0.0 mm
12:22 5.7 °C 3.7 °C 1020.2 hPa WNW 11.3 km/h 19.3 km/h 87 % 0.0 mm
12:27 5.8 °C 3.8 °C 1020.2 hPa NW 9.7 km/h 17.7 km/h 87 % 0.0 mm
12:32 5.8 °C 3.8 °C 1020.2 hPa WNW 9.7 km/h 17.7 km/h 87 % 0.0 mm
12:42 5.8 °C 3.8 °C 1020.5 hPa WNW 8.0 km/h 17.7 km/h 87 % 0.0 mm
12:47 5.8 °C 3.6 °C 1020.5 hPa WNW 6.4 km/h 17.7 km/h 86 % 0.0 mm
12:52 5.8 °C 3.8 °C 1020.5 hPa WNW 6.4 km/h 17.7 km/h 87 % 0.0 mm
12:57 5.8 °C 3.8 °C 1020.5 hPa NW 4.8 km/h 14.5 km/h 87 % 0.0 mm
13:02 5.9 °C 3.7 °C 1020.5 hPa NNW 4.8 km/h 14.5 km/h 86 % 0.0 mm
13:12 6.0 °C 3.8 °C 1020.5 hPa NNW 1.6 km/h 14.5 km/h 86 % 0.0 mm
13:17 6.0 °C 3.7 °C 1020.2 hPa WNW 1.6 km/h 14.5 km/h 85 % 0.0 mm
13:22 6.1 °C 3.8 °C 1020.2 hPa WNW 3.2 km/h 14.5 km/h 85 % 0.0 mm
13:27 6.2 °C 3.7 °C 1020.2 hPa NNW 4.8 km/h 14.5 km/h 84 % 0.0 mm
13:32 6.2 °C 3.9 °C 1020.2 hPa WNW 8.0 km/h 14.5 km/h 85 % 0.0 mm
13:37 6.3 °C 3.8 °C 1020.2 hPa West 8.0 km/h 14.5 km/h 84 % 0.0 mm
13:42 6.3 °C 3.8 °C 1020.2 hPa NW 4.8 km/h 14.5 km/h 84 % 0.0 mm
13:47 6.4 °C 3.9 °C 1020.2 hPa North 1.6 km/h 14.5 km/h 84 % 0.0 mm
13:52 6.4 °C 3.9 °C 1020.2 hPa NW 6.4 km/h 11.3 km/h 84 % 0.0 mm
13:57 6.4 °C 3.7 °C 1020.2 hPa North 4.8 km/h 11.3 km/h 83 % 0.0 mm
14:02 6.4 °C 3.7 °C 1020.2 hPa Calm   11.3 km/h 83 % 0.0 mm
14:07 6.5 °C 4.0 °C 1020.2 hPa Calm   9.7 km/h 84 % 0.0 mm
14:12 6.5 °C 3.8 °C 1020.2 hPa NW 1.6 km/h 9.7 km/h 83 % 0.0 mm
14:17 6.5 °C 3.8 °C 1020.2 hPa NW 1.6 km/h 12.9 km/h 83 % 0.0 mm
14:22 6.6 °C 3.9 °C 1020.2 hPa WNW 1.6 km/h 12.9 km/h 83 % 0.0 mm
14:32 6.6 °C 3.7 °C 1020.2 hPa West 3.2 km/h 9.7 km/h 82 % 0.0 mm
14:37 6.6 °C 3.7 °C 1020.2 hPa NW 3.2 km/h 9.7 km/h 82 % 0.0 mm
14:42 6.6 °C 3.6 °C 1020.2 hPa Calm   9.7 km/h 81 % 0.0 mm
14:47 6.6 °C 3.4 °C 1020.2 hPa WNW 1.6 km/h 8.0 km/h 80 % 0.0 mm
14:52 6.7 °C 3.5 °C 1020.2 hPa WNW 6.4 km/h 9.7 km/h 80 % 0.0 mm
14:57 6.7 °C 3.3 °C 1020.2 hPa Calm   9.7 km/h 79 % 0.0 mm
15:02 6.9 °C 3.5 °C 1020.2 hPa NNW 4.8 km/h 9.7 km/h 79 % 0.0 mm
15:07 6.9 °C 3.5 °C 1020.2 hPa WNW 1.6 km/h 8.0 km/h 79 % 0.0 mm
15:12 6.9 °C 3.5 °C 1020.2 hPa NW 1.6 km/h 4.8 km/h 79 % 0.0 mm
15:17 6.9 °C 3.5 °C 1020.2 hPa WNW 1.6 km/h 9.7 km/h 79 % 0.0 mm
15:22 6.9 °C 3.5 °C 1020.5 hPa WNW 1.6 km/h 9.7 km/h 79 % 0.0 mm
15:27 7.0 °C 3.6 °C 1020.5 hPa North 3.2 km/h 9.7 km/h 79 % 0.0 mm
15:37 7.2 °C 3.8 °C 1020.5 hPa West 1.6 km/h 6.4 km/h 79 % 0.0 mm
15:42 7.2 °C 3.6 °C 1020.5 hPa Calm   4.8 km/h 78 % 0.0 mm
15:47 7.3 °C 3.7 °C 1020.5 hPa Calm   4.8 km/h 78 % 0.0 mm
15:57 7.2 °C 3.6 °C 1020.2 hPa Calm   6.4 km/h 78 % 0.0 mm
16:02 7.2 °C 3.6 °C 1020.2 hPa Calm   6.4 km/h 78 % 0.0 mm
16:07 7.3 °C 3.9 °C 1020.2 hPa WNW 1.6 km/h 4.8 km/h 79 % 0.0 mm
16:12 7.2 °C 3.6 °C 1020.2 hPa WSW 1.6 km/h 4.8 km/h 78 % 0.0 mm
16:17 7.2 °C 3.8 °C 1020.5 hPa Calm   4.8 km/h 79 % 0.0 mm
16:22 7.2 °C 3.8 °C 1020.2 hPa Calm   3.2 km/h 79 % 0.0 mm
16:32 7.5 °C 4.1 °C 1020.5 hPa Calm   1.6 km/h 79 % 0.0 mm
16:37 7.7 °C 4.3 °C 1020.2 hPa Calm   1.6 km/h 79 % 0.0 mm
16:42 7.8 °C 4.0 °C 1020.2 hPa South 1.6 km/h 1.6 km/h 77 % 0.0 mm
16:52 7.9 °C 4.3 °C 1020.2 hPa Calm   3.2 km/h 78 % 0.0 mm
16:57 8.0 °C 4.6 °C 1020.2 hPa Calm   3.2 km/h 79 % 0.0 mm
17:02 7.8 °C 3.8 °C 1020.5 hPa WNW 6.4 km/h 6.4 km/h 76 % 0.0 mm
17:07 7.6 °C 4.0 °C 1020.5 hPa WNW 1.6 km/h 9.7 km/h 78 % 0.0 mm
17:12 7.4 °C 3.8 °C 1020.5 hPa West 3.2 km/h 9.7 km/h 78 % 0.0 mm
17:17 7.3 °C 3.5 °C 1020.5 hPa West 1.6 km/h 9.7 km/h 77 % 0.0 mm
17:22 7.2 °C 3.6 °C 1020.5 hPa WNW 3.2 km/h 9.7 km/h 78 % 0.0 mm
17:27 7.2 °C 3.6 °C 1020.5 hPa WNW 3.2 km/h 9.7 km/h 78 % 0.0 mm
17:32 7.1 °C 3.5 °C 1020.5 hPa Calm   4.8 km/h 78 % 0.0 mm
17:37 7.1 °C 3.7 °C 1020.9 hPa West 1.6 km/h 4.8 km/h 79 % 0.0 mm
17:42 7.0 °C 3.4 °C 1020.9 hPa West 3.2 km/h 6.4 km/h 78 % 0.0 mm
17:47 6.9 °C 3.3 °C 1020.9 hPa West 4.8 km/h 6.4 km/h 78 % 0.0 mm
17:52 6.8 °C 3.2 °C 1020.9 hPa WNW 4.8 km/h 6.4 km/h 78 % 0.0 mm
17:57 6.7 °C 3.1 °C 1020.9 hPa WNW 3.2 km/h 8.0 km/h 78 % 0.0 mm
18:02 6.7 °C 3.1 °C 1021.2 hPa West 1.6 km/h 8.0 km/h 78 % 0.0 mm
18:07 6.5 °C 2.9 °C 1021.2 hPa WNW 1.6 km/h 8.0 km/h 78 % 0.0 mm
18:12 6.4 °C 3.0 °C 1021.2 hPa West 3.2 km/h 6.4 km/h 79 % 0.0 mm
18:17 6.4 °C 3.0 °C 1021.2 hPa West 1.6 km/h 6.4 km/h 79 % 0.0 mm
18:22 6.3 °C 3.1 °C 1021.2 hPa West 3.2 km/h 6.4 km/h 80 % 0.0 mm
18:27 6.2 °C 3.2 °C 1021.2 hPa WSW 3.2 km/h 4.8 km/h 81 % 0.0 mm
18:32 6.0 °C 3.2 °C 1021.2 hPa West 3.2 km/h 6.4 km/h 82 % 0.0 mm
18:37 5.9 °C 3.2 °C 1021.2 hPa West 1.6 km/h 6.4 km/h 83 % 0.0 mm
18:42 5.8 °C 3.1 °C 1021.2 hPa West 1.6 km/h 6.4 km/h 83 % 0.0 mm
18:47 5.7 °C 3.2 °C 1021.2 hPa West 1.6 km/h 6.4 km/h 84 % 0.0 mm
18:52 5.7 °C 3.2 °C 1021.2 hPa Calm   6.4 km/h 84 % 0.0 mm
18:57 5.6 °C 3.1 °C 1021.2 hPa WSW 1.6 km/h 3.2 km/h 84 % 0.0 mm
19:02 5.7 °C 3.0 °C 1021.2 hPa WSW 1.6 km/h 3.2 km/h 83 % 0.0 mm
19:07 5.7 °C 3.0 °C 1021.2 hPa West 1.6 km/h 1.6 km/h 83 % 0.0 mm
19:12 5.7 °C 3.0 °C 1021.2 hPa Calm   4.8 km/h 83 % 0.0 mm
19:17 5.6 °C 2.9 °C 1021.2 hPa West 1.6 km/h 4.8 km/h 83 % 0.0 mm
19:22 5.5 °C 3.0 °C 1021.2 hPa Calm   3.2 km/h 84 % 0.0 mm
19:27 5.4 °C 2.9 °C 1021.2 hPa Calm   3.2 km/h 84 % 0.0 mm
19:32 5.3 °C 2.8 °C 1021.2 hPa Calm   3.2 km/h 84 % 0.0 mm
19:37 5.3 °C 3.0 °C 1021.2 hPa Calm   1.6 km/h 85 % 0.0 mm
19:42 5.3 °C 3.0 °C 1021.2 hPa Calm     85 % 0.0 mm
19:47 5.2 °C 2.9 °C 1021.2 hPa Calm     85 % 0.0 mm
19:52 5.1 °C 3.0 °C 1021.2 hPa Calm     86 % 0.0 mm
19:57 4.9 °C 2.8 °C 1021.2 hPa Calm     86 % 0.0 mm
20:02 4.8 °C 2.8 °C 1020.9 hPa Calm     87 % 0.0 mm
20:07 4.7 °C 2.9 °C 1020.9 hPa Calm     88 % 0.0 mm
20:12 4.6 °C 2.8 °C 1020.9 hPa Calm     88 % 0.0 mm
20:17 4.5 °C 2.7 °C 1020.9 hPa Calm     88 % 0.0 mm
20:22 4.4 °C 2.7 °C 1020.9 hPa Calm     89 % 0.0 mm
20:27 4.3 °C 2.6 °C 1020.9 hPa Calm     89 % 0.0 mm
20:32 4.3 °C 2.6 °C 1020.9 hPa Calm     89 % 0.0 mm
20:42 4.2 °C 2.7 °C 1020.5 hPa Calm     90 % 0.0 mm
20:47 4.2 °C 2.7 °C 1020.5 hPa Calm   3.2 km/h 90 % 0.0 mm
20:52 4.2 °C 2.7 °C 1020.5 hPa Calm   3.2 km/h 90 % 0.0 mm
20:57 4.3 °C 2.8 °C 1020.5 hPa Calm   1.6 km/h 90 % 0.0 mm
21:02 4.3 °C 2.8 °C 1020.5 hPa Calm   1.6 km/h 90 % 0.0 mm
21:07 4.3 °C 2.6 °C 1020.5 hPa Calm   3.2 km/h 89 % 0.0 mm
21:12 4.2 °C 2.7 °C 1020.5 hPa Calm   3.2 km/h 90 % 0.0 mm
21:17 4.2 °C 2.7 °C 1020.5 hPa Calm   3.2 km/h 90 % 0.0 mm
21:22 4.1 °C 2.6 °C 1020.5 hPa Calm   1.6 km/h 90 % 0.0 mm
21:27 4.1 °C 2.6 °C 1020.2 hPa Calm   1.6 km/h 90 % 0.0 mm
21:32 4.0 °C 2.7 °C 1020.5 hPa Calm   1.6 km/h 91 % 0.0 mm
21:37 3.9 °C 2.6 °C 1020.2 hPa Calm   1.6 km/h 91 % 0.0 mm
21:42 3.9 °C 2.6 °C 1020.2 hPa Calm   1.6 km/h 91 % 0.0 mm
21:47 3.9 °C 2.6 °C 1020.2 hPa SSW 1.6 km/h 1.6 km/h 91 % 0.0 mm
21:52 3.9 °C 2.6 °C 1020.2 hPa Calm   1.6 km/h 91 % 0.0 mm
21:57 3.8 °C 2.5 °C 1020.2 hPa SW 1.6 km/h 1.6 km/h 91 % 0.0 mm
22:02 3.9 °C 2.6 °C 1020.2 hPa SSW 1.6 km/h 3.2 km/h 91 % 0.0 mm
22:12 4.1 °C 2.6 °C 1020.2 hPa Calm   3.2 km/h 90 % 0.0 mm
22:17 4.1 °C 2.6 °C 1020.2 hPa SSW 1.6 km/h 3.2 km/h 90 % 0.0 mm
22:22 4.1 °C 2.6 °C 1019.9 hPa Calm   3.2 km/h 90 % 0.0 mm
22:27 4.1 °C 2.6 °C 1019.9 hPa Calm   3.2 km/h 90 % 0.0 mm
22:32 4.2 °C 2.7 °C 1019.9 hPa SSW 1.6 km/h 3.2 km/h 90 % 0.0 mm
22:37 4.1 °C 2.6 °C 1019.9 hPa South 1.6 km/h 3.2 km/h 90 % 0.0 mm
22:42 4.1 °C 2.6 °C 1019.9 hPa SSW 1.6 km/h 3.2 km/h 90 % 0.0 mm
22:47 4.1 °C 2.8 °C 1019.9 hPa SW 1.6 km/h 3.2 km/h 91 % 0.0 mm
22:52 4.1 °C 2.8 °C 1019.9 hPa SSW 1.6 km/h 4.8 km/h 91 % 0.0 mm
22:57 4.1 °C 2.8 °C 1019.9 hPa South 1.6 km/h 4.8 km/h 91 % 0.0 mm
23:02 4.1 °C 2.8 °C 1019.9 hPa SSW 1.6 km/h 4.8 km/h 91 % 0.0 mm
23:07 4.1 °C 2.8 °C 1019.9 hPa Calm   3.2 km/h 91 % 0.0 mm
23:12 4.0 °C 2.8 °C 1019.9 hPa Calm   3.2 km/h 92 % 0.0 mm
23:17 3.9 °C 2.7 °C 1019.5 hPa Calm   3.2 km/h 92 % 0.0 mm
23:22 4.0 °C 2.8 °C 1019.5 hPa South 1.6 km/h 1.6 km/h 92 % 0.0 mm
23:27 4.1 °C 2.8 °C 1019.5 hPa Calm   1.6 km/h 91 % 0.0 mm
23:32 4.0 °C 2.7 °C 1019.5 hPa Calm   1.6 km/h 91 % 0.0 mm
23:37 4.0 °C 2.8 °C 1019.5 hPa Calm   1.6 km/h 92 % 0.0 mm
23:42 4.0 °C 2.8 °C 1019.5 hPa SSW 1.6 km/h 1.6 km/h 92 % 0.0 mm
23:47 4.1 °C 2.8 °C 1019.5 hPa Calm   4.8 km/h 91 % 0.0 mm
23:52 4.2 °C 2.9 °C 1019.5 hPa South 3.2 km/h 4.8 km/h 91 % 0.0 mm
23:57 4.2 °C 2.7 °C 1019.5 hPa Calm   4.8 km/h 90 % 0.0 mm
Meteo18
Compliments of Weather Underground - 4 mb

Script developed by  Jim McMurry - jmcmurry@mwt.net Adapted for the template by  Wim van der Kuil - Leuven-Template.eu

You find our weather info also at:

European Weather Network

Weather Underground

Equipment we use:

Weather-station
Davis Vue

Weather-program
Meteohub

Weather-server
Raspberry PI 2 B+

Provider
1 and 1

Davis Vue

Meteohub

Raspberry PI 2 B+

1 and 1